EHI
0 0 0 0 0 0 0 0 0 0 0 0 0 0 0 0 0 0 0 0 1 2 1 0 2 6 9 10 10 8 5 1 0 0 0 0 0 0 0 0 0 0 0 0
0 0 0 0 0 0 0 0 0 0 0 0 0 0 0 0 0 0 0 0 1 2 1 0 1 4 7 8 9 8 5 2 0 0 0 0 0 0 0 0 0 0 0 0
0 0 0 0 0 0 0 0 0 0 0 0 0 0 0 0 0 0 0 0 1 1 0 0 0 2 5 6 6 7 6 3 1 0 0 0 0 0 0 0 0 0 0 0
0 0 0 0 0 0 0 0 0 0 0 0 0 0 0 0 0 0 0 0 0 0 0 0 0 1 3 4 5 6 7 5 3 1 0 0 0 0 0 0 0 0 0 0
0 0 0 0 0 0 0 0 0 0 0 0 0 0 0 0 0 0 0 0 0 0 0 0 0 2 2 3 4 5 6 5 3 1 0 0 0 0 0 0 0 0 0 0
0 0 0 0 0 0 0 0 0 0 0 0 0 0 0 0 0 0 0 0 0 0 0 0 0 1 2 1 2 3 4 4 3 1 0 0 0 0 0 0 0 0 0 0
0 0 0 0 0 0 0 0 0 0 0 0 0 0 0 0 0 0 0 0 0 0 0 0 0 0 0 0 1 2 3 3 2 1 0 0 0 1 1 0 0 0 0 0
0 0 0 0 0 0 0 0 0 0 0 0 0 0 0 0 0 0 0 0 0 0 0 0 0 0 0 0 0 1 2 3 2 1 0 0 0 1 2 1 0 0 0 0
0 0 0 0 0 0 0 0 0 0 0 0 0 0 0 0 0 0 0 0 0 0 0 0 0 0 0 0 0 0 1 2 2 1 0 0 0 1 1 1 0 0 0 0
0 0 0 0 0 0 0 0 0 0 0 0 0 0 0 0 0 0 0 0 0 0 0 0 0 0 0 0 0 0 0 1 1 1 0 0 0 0 0 0 0 0 0 0
0 0 0 0 0 0 0 0 0 0 0 0 0 0 0 0 0 0 0 0 0 0 0 0 0 0 0 0 0 0 0 0 0 0 0 0 0 0 0 0 0 0 0 0
0 0 0 0 0 0 0 0 0 0 0 0 0 0 0 0 0 0 0 0 0 0 0 0 0 0 0 0 0 0 0 0 0 0 0 0 0 0 0 0 0 0 0 0
0 0 0 0 0 0 0 0 0 0 0 0 0 0 0 0 0 0 0 0 0 0 0 0 0 0 0 0 0 0 0 0 0 0 0 0 0 0 0 0 0 0 0 0
0 0 0 0 0 0 0 0 0 0 0 0 0 0 0 0 0 0 0 0 0 0 0 0 0 0 0 0 0 0 0 0 0 0 0 0 0 0 0 0 0 0 0 0
0 0 0 0 0 0 0 0 0 0 0 0 0 0 0 0 0 0 0 0 0 0 0 0 0 0 0 0 0 0 0 0 0 0 0 0 0 0 0 0 0 0 0 0
0 0 0 0 0 0 0 0 0 0 0 0 0 0 0 0 0 0 0 0 0 0 0 0 0 0 0 0 0 0 0 0 0 0 0 0 0 0 0 0 0 0 0 0
0 0 0 0 0 0 0 0 0 0 0 0 0 0 0 0 0 0 0 0 0 0 0 0 0 0 0 0 0 0 0 0 0 0 0 0 0 0 0 0 0 0 0 0
0 0 0 0 0 0 0 0 0 0 0 0 0 0 0 0 0 0 0 0 0 0 0 0 0 0 0 0 0 0 0 0 0 0 0 0 0 0 0 0 0 0 0 0
0 0 0 0 0 0 0 0 0 0 0 0 0 0 0 0 0 0 0 0 0 0 0 0 0 0 0 0 0 0 0 0 0 0 0 0 0 0 0 0 0 0 0 0
0 0 0 0 0 0 0 0 0 0 0 0 0 0 0 0 0 0 0 0 0 0 0 0 0 0 0 0 0 0 0 0 0 0 0 0 0 0 0 0 0 0 0 0
0 0 0 0 0 0 0 0 0 0 0 0 0 0 0 0 0 0 0 0 0 0 0 0 0 0 0 0 0 0 0 0 0 0 0 0 0 0 0 0 0 0 0 0
0 0 0 0 0 0 0 0 0 0 0 0 0 0 0 0 0 0 0 0 0 0 0 0 0 0 0 0 0 0 0 0 0 0 0 0 0 0 0 0 0 0 0 0
0 0 0 0 0 0 0 0 0 0 0 0 0 0 0 0 0 0 0 0 0 0 0 0 0 0 0 0 0 0 0 0 0 0 0 0 0 0 0 0 0 0 0 0
0 0 0 0 0 0 0 0 0 0 0 0 0 0 0 0 0 0 0 0 0 0 0 0 0 0 0 0 0 0 0 0 0 0 0 0 0 0 0 0 0 0 0 0
0 0 0 0 0 0 0 0 0 0 0 0 0 0 0 0 0 0 0 0 0 0 0 0 0 0 0 0 0 0 0 0 0 1 0 0 0 0 0 0 0 0 0 0
0 0 0 0 0 0 0 0 0 0 0 0 0 0 0 0 0 0 0 0 0 0 0 0 0 0 0 0 0 0 0 0 0 1 0 0 0 0 0 0 0 0 0 0
Wind_Speed
1 3 5 7 7 4 4 4 4 4 2 4 5 5 4 2 4 5 5 6 6 5 3 3 4 5 7 7 7 8 9 8 7 5 4 4 3 2 2 2 3 4 4 4
2 5 5 3 3 3 5 4 3 2 1 2 3 4 3 3 5 6 7 6 6 3 2 3 4 5 7 9 8 8 9 9 8 5 4 3 3 3 2 2 3 3 3 3
4 2 2 2 3 4 5 6 4 2 1 1 1 3 3 3 2 2 3 4 4 5 5 5 4 5 6 8 9 8 9 9 8 7 5 5 4 3 2 2 2 2 3 3
2 1 3 3 4 4 5 4 3 3 2 1 3 4 5 3 2 3 3 3 4 3 3 3 4 5 5 6 6 7 8 8 8 8 7 8 5 4 4 3 2 2 3 3
2 2 5 6 5 5 2 0 2 3 2 0 1 3 6 2 4 6 5 5 4 4 4 4 5 6 4 4 5 5 6 7 7 7 8 8 5 3 3 3 4 3 2 3
2 2 3 3 2 4 2 3 2 1 1 4 6 5 6 5 7 5 4 5 5 4 3 3 3 3 3 3 3 5 6 6 6 7 7 7 8 6 6 5 4 3 2 2
3 1 1 2 3 3 4 4 2 2 3 5 5 5 7 4 4 6 5 5 4 3 3 3 3 3 3 4 4 4 6 6 6 7 7 6 7 7 8 6 6 5 3 2
1 2 1 0 3 4 4 5 4 4 4 2 3 7 6 2 2 2 2 2 1 1 2 3 4 3 3 4 5 5 6 5 6 6 6 5 5 4 4 4 4 4 3 3
0 3 2 1 0 4 4 3 2 2 0 1 4 4 5 2 2 1 0 1 1 1 1 1 2 2 2 3 4 5 5 5 5 5 5 5 5 5 4 4 3 3 3 3
1 2 3 2 2 1 2 4 3 3 3 2 3 3 4 3 2 1 0 1 1 1 1 1 0 1 1 1 1 2 3 4 4 4 4 4 4 4 4 4 4 4 4 4
0 1 3 2 1 2 2 2 2 2 2 3 3 4 2 4 3 3 2 1 1 0 0 1 1 1 2 2 2 2 2 3 3 4 4 4 4 4 4 4 4 4 4 4
0 2 1 3 3 1 1 3 4 3 2 2 2 5 2 1 2 1 1 1 1 1 1 1 2 2 3 2 2 2 2 2 2 3 4 4 4 4 4 4 4 4 4 4
1 3 1 3 2 1 0 1 3 3 2 2 3 5 1 3 3 2 2 2 2 2 2 2 2 2 2 2 2 2 1 1 1 3 4 4 4 4 4 3 3 4 4 4
2 2 4 5 4 2 2 2 2 4 3 3 5 6 5 4 4 3 3 2 2 2 2 3 2 2 2 2 2 2 1 1 2 3 4 4 3 3 3 3 3 3 4 4
2 1 2 4 3 1 3 4 4 5 6 5 5 5 6 4 3 2 2 2 2 3 3 3 2 1 2 2 2 2 2 1 2 3 3 3 3 3 3 3 3 3 3 3
2 0 1 3 2 1 4 6 7 7 5 6 6 7 4 2 2 2 1 1 1 2 2 2 2 2 2 2 2 2 2 1 2 3 3 3 3 4 3 3 3 3 3 2
1 1 1 3 4 2 5 6 6 5 4 4 7 5 1 2 2 2 2 1 1 1 2 2 2 1 1 1 1 1 1 1 2 3 3 3 4 4 3 3 4 3 3 2
2 2 1 1 2 4 5 2 2 2 2 3 3 2 2 3 2 2 1 1 1 1 1 2 1 1 1 1 2 2 2 2 2 3 3 3 4 4 3 4 3 3 2 2
3 3 1 1 1 6 5 2 1 2 3 2 3 2 2 1 1 2 2 1 1 2 1 1 0 0 1 1 1 2 2 2 3 3 3 2 3 4 3 3 3 2 2 2
2 2 2 1 1 5 4 3 3 0 3 2 1 2 2 0 0 3 2 2 2 2 1 1 1 2 2 1 2 3 2 3 2 2 2 2 3 4 3 3 2 2 2 2
2 1 1 2 3 6 4 5 1 2 4 3 2 2 2 2 3 2 2 2 2 2 2 2 2 2 1 1 2 3 3 2 2 2 3 3 3 3 3 3 3 3 3 2
3 2 2 2 3 7 3 1 2 4 3 2 2 2 1 1 1 1 1 1 2 2 2 2 2 2 1 1 3 3 2 2 2 2 3 3 3 3 3 4 3 3 3 3
3 4 4 5 5 4 2 3 3 2 2 3 2 2 1 1 1 1 1 1 1 1 1 1 2 2 2 2 2 2 1 2 2 3 4 3 3 3 3 3 3 3 2 2
3 1 2 3 5 5 4 3 3 2 3 3 2 2 1 1 1 1 0 1 1 1 1 1 1 2 2 2 2 2 1 1 2 3 3 3 3 3 3 2 2 2 2 1
5 2 2 4 6 5 4 3 3 3 3 3 3 2 1 1 1 1 0 1 1 1 0 1 1 1 1 2 2 2 1 2 3 3 2 3 3 3 2 2 2 1 1 1
4 5 5 6 5 3 4 4 3 2 3 3 2 2 1 1 1 1 1 1 0 1 0 1 1 1 1 1 2 2 1 2 3 2 2 2 2 2 2 2 2 3 2 2
Wind_Direction
131 142 198 205 204 209 177 183 210 226 214 171 203 232 248 206 176 190 192 193 197 204 193 165 166 161 150 152 158 162 158 153 147 145 143 141 141 129 118 121 124 127 126 126
113 217 221 202 195 199 200 200 212 270 248 185 194 249 255 220 195 195 194 196 202 198 170 167 166 164 164 167 170 171 168 164 163 162 151 133 128 124 123 119 114 123 129 132
185 223 179 169 188 208 218 209 201 184 20 41 106 288 260 251 212 201 199 190 190 187 190 182 175 177 174 174 177 180 176 169 164 151 129 109 96 89 102 121 132 133 133 128
229 241 167 178 195 198 228 215 206 171 136 240 175 232 260 233 236 227 222 210 205 209 192 184 178 179 185 185 178 176 171 165 163 156 155 154 158 166 179 167 155 139 133 133
249 205 178 193 204 181 217 157 186 178 154 175 196 206 265 211 227 233 224 220 217 210 191 191 193 189 186 174 168 165 163 162 163 164 168 165 158 155 138 133 137 136 129 129
274 243 194 189 170 166 132 73 77 72 112 225 206 194 253 217 214 222 224 218 219 212 198 192 185 165 155 137 146 155 161 163 161 163 170 171 164 155 147 153 159 155 142 131
337 327 335 115 119 136 130 123 133 190 212 235 177 191 241 230 219 215 215 215 217 207 192 182 172 165 158 155 161 162 165 165 166 169 174 174 168 166 169 170 172 165 160 166
2 283 274 68 160 169 180 163 168 186 205 251 171 213 242 249 262 236 203 175 162 192 196 188 187 178 171 171 170 168 173 171 168 174 176 167 160 162 170 173 168 171 174 174
171 281 306 298 160 145 158 179 154 120 89 184 232 269 302 314 341 2 105 105 138 202 201 193 176 164 164 173 177 176 173 172 170 170 164 161 162 163 165 163 155 155 155 153
183 276 302 326 55 45 143 144 128 141 166 220 250 245 250 277 290 313 329 268 301 10 43 37 92 130 153 157 143 147 156 167 165 159 160 157 159 162 158 154 158 159 159 153
113 157 317 7 154 177 125 139 142 147 171 174 228 262 238 229 232 223 227 229 274 335 43 42 45 56 58 71 94 108 128 136 150 158 151 144 147 147 150 159 167 163 160 159
43 109 277 271 270 225 160 174 157 167 209 189 193 271 322 287 300 289 292 334 25 24 51 67 65 63 62 63 78 99 112 136 151 151 141 143 143 142 149 158 164 160 160 165
56 103 39 350 354 43 13 226 169 148 130 175 185 258 2 22 12 9 7 18 32 27 34 50 60 62 58 54 55 64 86 107 128 133 135 135 139 144 153 156 158 157 155 158
82 125 176 204 224 190 238 248 183 155 188 220 223 249 293 327 339 346 1 14 39 36 34 37 42 43 49 43 52 50 51 93 111 124 132 134 143 150 154 151 147 148 150 152
86 179 242 264 270 234 244 246 227 213 209 215 234 245 271 290 302 319 344 29 38 29 26 21 16 23 46 39 36 41 37 67 104 117 126 131 132 132 129 130 132 129 134 141
51 123 331 308 303 273 277 258 236 241 234 226 243 261 265 291 339 345 350 23 26 2 1 358 3 21 31 31 27 33 31 36 96 114 123 123 123 123 124 126 124 119 113 116
26 87 57 289 316 349 273 248 221 213 210 208 231 242 268 292 297 289 286 285 291 316 332 337 341 356 5 6 16 34 39 53 91 110 118 121 122 120 122 122 116 115 115 112
156 116 141 300 25 238 251 308 219 211 253 239 243 270 269 260 275 315 311 264 284 294 304 316 332 353 5 16 31 43 50 74 92 106 110 112 115 116 118 118 117 116 116 122
170 152 144 145 242 275 295 314 320 224 266 257 236 269 299 314 5 331 335 318 271 271 271 277 298 32 47 43 49 67 59 73 82 88 93 117 124 123 121 118 117 117 114 109
72 109 129 143 207 251 274 313 311 239 279 304 230 227 249 352 304 287 337 4 6 357 15 60 71 75 68 38 60 80 71 71 71 74 83 95 114 120 123 124 117 106 114 112
27 39 163 193 233 265 288 304 320 182 257 306 288 245 228 241 237 264 343 8 29 41 46 69 80 73 66 63 82 80 66 51 38 61 75 78 97 113 118 110 105 109 101 90
191 182 202 174 208 260 319 28 178 240 291 303 304 287 243 253 290 339 11 23 37 44 47 63 72 52 38 66 90 81 60 24 39 73 80 81 91 99 102 108 101 100 100 91
211 204 196 199 222 262 275 250 273 292 291 293 288 290 266 263 282 340 4 12 34 42 35 54 80 56 32 38 87 95 41 34 64 79 81 80 83 88 99 113 112 103 99 98
275 246 208 260 271 276 283 297 313 305 288 301 296 287 271 245 267 317 2 16 25 30 47 65 73 64 32 31 45 69 49 53 89 95 92 92 96 95 91 96 103 106 107 103
252 217 229 259 280 309 304 289 298 316 326 329 325 309 260 223 240 242 294 325 329 345 12 84 99 92 38 37 43 48 52 86 96 93 92 91 91 103 95 80 77 89 126 166
221 195 196 235 240 229 272 305 320 322 321 317 320 326 326 220 218 237 264 264 263 307 20 82 93 89 58 47 38 26 32 98 108 100 93 94 93 93 94 87 55 41 48 41